[Date Prev][Date Next][Thread Prev][Thread Next] - [Date Index][Thread Index][Author Index]
Re: MIR LAST TLE DATA
- Subject: [sarex] Re: MIR LAST TLE DATA
- From: bd703@xxxxxxx
- Date: Sat, 19 May 2001 17:46:35 -0700 (PDT)
- In-Reply-To: <20010519.170431.-386279.0.azrowe@juno.com@juno.com>
Here is the last MIR TLE from the NASA OIG site.
MIR
1 16609U 86017A 01082.20636684 .00382588 12180-4 29147-4 0 7827
2 16609 51.6362 249.6171 0048914 224.8684 134.9353 16.33569098863305
Kerwin
N7JGW
*****************************************************************************
* They know who you are...
bd703@scn.org * They know where you live...
* And there's no doubt
----
Via the sarex mailing list at AMSAT.ORG courtesy of AMSAT-NA.
To unsubscribe, send "unsubscribe sarex" to Majordomo@amsat.org
AMSAT Home